#timestamp,LO_Frequency,Hit,StdDev 
1536465615.8,286047000.4,N
1536465635.7,286047000.3,N
1536465655.5,286047002.3,N
1536465675.4,286047001.7,N
1536465695.2,286047004.1,N
1536465715.0,286047002.9,N
1536465715.9,286047002.9,N
1536465735.8,286047002.9,N
1536465755.6,286047003.4,N
1536465775.4,286047004.2,N
1536465795.3,286047003.1,N
1536465815.1,286047006.0,Y
1536465835.9,286047004.2,P
1536465855.7,286047004.2,P
1536465875.5,286047003.8,P
1536465895.4,286047005.9,Y
1536465915.2,286047000.6,P
1536465935.1,286047000.8,N
1536465936.0,286047000.8,N
1536465955.8,286046999.0,N
1536465975.6,286046998.7,N
1536465995.5,286047000.8,N
1536466015.3,286047000.8,N
1536466035.1,286047001.2,N
1536466055.9,286046998.4,N
1536466075.7,286046996.7,N
1536466095.5,286046995.1,N
1536466115.4,286046997.5,N
1536466135.2,286046996.9,N
1536466155.1,286046997.2,N
1536466156.0,286046997.2,N
1536466175.8,286046997.9,N
1536466195.6,286046996.1,N
1536466215.5,286046996.1,N
1536466235.3,286046996.3,N
1536466255.1,286046991.8,Y
1536466275.9,286046996.2,P
1536466295.7,286046994.6,P
1536466315.6,286046993.6,P
1536466335.4,286046993.6,Y
1536466355.2,286047000.3,P
1536466375.1,286047001.7,N
1536466376.0,286047001.7,N
1536466395.8,286047003.5,N
1536466415.7,286047005.6,N
1536466435.5,286047005.1,N
1536466455.3,286047004.9,N
1536466475.2,286047005.1,N
1536466495.9,286047004.7,N
1536466515.7,286047006.9,N
1536466535.6,286047006.7,N
1536466555.4,286047008.8,N
1536466575.3,286047010.7,Y
1536466595.1,286047005.1,P
1536466596.0,286047005.1,P
1536466615.8,286047004.7,P
1536466635.7,286047004.9,Y
1536466655.5,286047000.6,P
1536466675.3,286047001.0,N
1536466695.2,286047000.3,N
1536466715.0,286047000.4,N
1536466715.9,286047000.4,N
1536466735.8,286047002.4,N
1536466755.6,286047002.7,N
1536466775.4,286047002.4,N
1536466795.3,286047000.1,N
1536466815.1,286047002.8,N
1536466835.8,286047002.5,N
1536466855.7,286047002.0,N
1536466875.5,286047000.5,N
1536466895.4,286047000.9,N
1536466915.2,286046999.7,N
1536466935.0,286047001.7,N
1536466935.9,286047001.7,N
1536466955.8,286047002.7,N
1536466975.6,286047002.7,N
1536466995.5,286047001.4,N
1536467015.3,286047003.8,Y
1536467035.1,286047001.8,P
1536467055.9,286047003.8,P
1536467075.7,286047006.2,P
1536467095.5,286047007.9,Y
1536467115.4,286047008.6,P
1536467135.2,286047009.1,P
1536467155.1,286047008.2,P
1536467156.0,286047008.2,Y
1536467175.8,286047002.4,P
1536467195.6,286047002.8,N
1536467215.5,286046999.9,N
1536467235.3,286046999.9,N
1536467255.1,286046999.9,N
1536467275.9,286046999.7,N
1536467295.7,286047000.1,N
1536467315.6,286047002.0,N
1536467335.4,286047001.5,N
1536467355.2,286047003.4,N
1536467375.1,286047002.9,N
1536467376.0,286047002.9,N
1536467395.8,286047003.0,N
1536467415.6,286047005.4,N
1536467435.5,286047003.3,N
1536467455.3,286047005.1,N
1536467475.2,286047008.4,Y
1536467495.9,286047006.9,P
1536467515.7,286047009.1,P
1536467535.6,286047006.5,N
1536467555.4,286047007.2,N
1536467575.2,286047005.3,N
1536467595.1,286047005.4,N
1536467596.0,286047005.4,N
1536467615.8,286047003.3,N
1536467635.7,286047003.2,N
1536467655.5,286047003.0,N
1536467705.3,286047005.9,E
1536467715.3,286047002.0,N
1536467735.1,286046998.7,P
1536467736.0,286046998.7,N
1536467755.8,286046999.5,N
1536467775.7,286046997.2,N
1536467795.5,286046998.0,N
1536467815.4,286046995.3,Y
1536467835.2,286046997.1,P
1536467855.0,286046997.1,P
1536467855.9,286046997.1,P
1536467875.8,286046995.3,Y
1536467895.6,286046998.2,P
1536467915.4,286046998.3,P
1536467935.3,286047002.2,P
1536467955.1,286047003.6,N
1536467975.9,286047005.6,N
1536467995.7,286047005.2,N
1536468015.5,286047005.0,N
1536468035.4,286047007.4,N
1536468055.2,286047006.1,N
1536468075.1,286047009.1,N
1536468076.0,286047009.1,N
1536468095.8,286047009.7,N
1536468115.6,286047011.9,N
1536468135.5,286047009.3,N
1536468155.3,286047009.9,N
1536468175.1,286047009.9,N
1536468195.9,286047008.0,N
1536468215.7,286047007.7,N
1536468235.5,286047008.2,N
1536468255.4,286047008.1,N
1536468275.2,286047008.2,N
1536468295.1,286047008.6,N
1536468296.0,286047008.6,N
1536468315.8,286047008.4,N
1536468335.6,286047008.4,N
1536468355.5,286047008.6,N
1536468375.3,286047008.2,N
1536468395.1,286047007.1,N
1536468415.9,286047005.0,N
1536468435.7,286047004.9,N
1536468455.6,286047005.6,N
1536468475.4,286047005.0,N
1536468495.2,286047004.7,N
1536468515.1,286047009.1,Y
1536468516.0,286047009.1,P
1536468535.8,286047002.7,P
1536468555.6,286047000.8,N
1536468575.5,286046999.1,N
1536468595.3,286046998.8,N
1536468615.1,286046999.2,N
1536468635.9,286046999.2,N
1536468655.7,286046999.3,N
1536468675.6,286046996.6,N
1536468695.4,286046996.7,N
1536468715.2,286046997.3,N
1536468735.1,286046997.5,N
1536468736.0,286046997.5,N
1536468755.8,286046997.7,N
1536468775.6,286046996.5,N
1536468795.5,286046999.6,N
1536468815.3,286046996.9,N
1536468835.2,286046997.3,N
1536468855.9,286046997.1,N
1536468875.7,286046996.8,N
1536468895.6,286046998.6,N
1536468915.4,286047000.8,N
1536468935.2,286047000.6,N
1536468955.1,286047001.4,N
1536468956.0,286047001.4,N
1536468975.8,286047001.3,N
1536468995.7,286047003.8,N
1536469015.5,286047003.3,N
1536469035.3,286047003.8,N
1536469055.2,286047003.4,N
1536469075.9,286047004.1,N
1536469095.7,286047004.1,N
1536469115.6,286047011.9,Y
1536469135.4,286047003.3,P
1536469155.3,286047003.6,N
1536469175.1,286047005.0,N
1536469176.0,286047005.0,N
1536469195.8,286047004.9,N
